Time,TemperatureF,DewpointF,PressureIn,WindDirection,WindDirectionDegrees,WindSpeedMPH,WindSpeedGustMPH,Humidity,HourlyPrecipIn,Conditions,Clouds,dailyrainin,SoftwareType,DateUTC
2013-12-31 00:05:00,5.3,-0.1,30.08,WNW,287,2.0,23.0,78,0.00,,,0.00,Wunderground v.1.15,2013-12-31 05:05:00,
2013-12-31 00:10:00,5.3,0.2,30.08,WNW,292,2.0,23.0,79,0.00,,,0.00,Wunderground v.1.15,2013-12-31 05:10:00,
2013-12-31 00:15:00,5.2,0.1,30.08,WNW,292,1.0,23.0,79,0.00,,,0.00,Wunderground v.1.15,2013-12-31 05:15:00,
2013-12-31 00:20:00,5.0,0.2,30.08,WNW,300,1.0,23.0,80,0.00,,,0.00,Wunderground v.1.15,2013-12-31 05:20:00,
2013-12-31 00:25:00,4.9,-0.2,30.08,NW,314,1.0,23.0,79,0.00,,,0.00,Wunderground v.1.15,2013-12-31 05:25:00,
2013-12-31 00:30:00,4.9,-0.2,30.07,NW,315,1.0,23.0,79,0.00,,,0.00,Wunderground v.1.15,2013-12-31 05:30:00,
2013-12-31 00:35:00,4.7,-0.1,30.08,West,264,1.0,23.0,80,0.00,,,0.00,Wunderground v.1.15,2013-12-31 05:35:00,
2013-12-31 00:40:00,4.6,-0.2,30.07,West,265,1.0,1.0,80,0.00,,,0.00,Wunderground v.1.15,2013-12-31 05:40:00,
2013-12-31 00:45:00,4.6,-0.2,30.07,West,265,0.0,23.0,80,0.00,,,0.00,Wunderground v.1.15,2013-12-31 05:45:00,
2013-12-31 00:50:00,4.4,-0.4,30.08,West,265,0.0,23.0,80,0.00,,,0.00,Wunderground v.1.15,2013-12-31 05:50:00,
2013-12-31 00:55:00,4.3,-0.5,30.07,West,265,0.0,23.0,80,0.00,,,0.00,Wunderground v.1.15,2013-12-31 05:55:00,
2013-12-31 01:00:00,4.1,-0.4,30.07,West,265,0.0,23.0,81,0.00,,,0.00,Wunderground v.1.15,2013-12-31 06:00:00,
2013-12-31 01:10:00,3.9,-0.6,30.07,West,265,0.0,23.0,81,0.00,,,0.00,Wunderground v.1.15,2013-12-31 06:10:00,
2013-12-31 01:15:00,3.7,-0.6,30.07,West,265,0.0,23.0,82,0.00,,,0.00,Wunderground v.1.15,2013-12-31 06:15:00,
2013-12-31 01:20:00,3.6,-0.7,30.08,West,265,0.0,23.0,82,0.00,,,0.00,Wunderground v.1.15,2013-12-31 06:20:00,
2013-12-31 01:25:00,3.4,-0.6,30.07,West,265,0.0,23.0,83,0.00,,,0.00,Wunderground v.1.15,2013-12-31 06:25:00,
2013-12-31 01:35:00,3.3,-0.4,30.07,West,265,0.0,23.0,84,0.00,,,0.00,Wunderground v.1.15,2013-12-31 06:35:00,
2013-12-31 01:40:00,3.3,-0.4,30.07,West,265,0.0,23.0,84,0.00,,,0.00,Wunderground v.1.15,2013-12-31 06:40:00,
2013-12-31 01:50:00,3.3,-0.7,30.07,NW,308,1.0,1.0,83,0.00,,,0.00,Wunderground v.1.15,2013-12-31 06:50:00,
2013-12-31 01:55:00,3.3,-1.0,30.07,North,4,2.0,3.0,82,0.00,,,0.00,Wunderground v.1.15,2013-12-31 06:55:00,
2013-12-31 02:00:00,3.4,-1.1,30.08,West,280,2.0,23.0,81,0.00,,,0.00,Wunderground v.1.15,2013-12-31 07:00:00,
2013-12-31 02:05:00,3.4,-1.1,30.07,WNW,300,3.0,23.0,81,0.00,,,0.00,Wunderground v.1.15,2013-12-31 07:05:00,
2013-12-31 02:15:00,3.3,-1.5,30.08,WNW,286,3.0,23.0,80,0.00,,,0.00,Wunderground v.1.15,2013-12-31 07:15:00,
2013-12-31 02:20:00,3.3,-1.2,30.08,NW,317,1.0,23.0,81,0.00,,,0.00,Wunderground v.1.15,2013-12-31 07:20:00,
2013-12-31 02:25:00,3.1,-1.4,30.08,NW,318,1.0,23.0,81,0.00,,,0.00,Wunderground v.1.15,2013-12-31 07:25:00,
2013-12-31 02:30:00,2.9,-1.3,30.08,NW,318,0.0,23.0,82,0.00,,,0.00,Wunderground v.1.15,2013-12-31 07:30:00,
2013-12-31 02:35:00,2.8,-1.4,30.08,NW,311,0.0,23.0,82,0.00,,,0.00,Wunderground v.1.15,2013-12-31 07:35:00,
2013-12-31 02:40:00,2.8,-1.2,30.07,NW,311,0.0,23.0,83,0.00,,,0.00,Wunderground v.1.15,2013-12-31 07:40:00,
2013-12-31 02:50:00,2.7,-1.3,30.07,NW,311,0.0,23.0,83,0.00,,,0.00,Wunderground v.1.15,2013-12-31 07:50:00,
2013-12-31 02:55:00,2.6,-1.4,30.07,NW,311,0.0,23.0,83,0.00,,,0.00,Wunderground v.1.15,2013-12-31 07:55:00,
2013-12-31 03:00:00,2.5,-1.5,30.08,NW,311,0.0,23.0,83,0.00,,,0.00,Wunderground v.1.15,2013-12-31 08:00:00,
2013-12-31 03:05:00,2.4,-1.6,30.07,North,354,0.0,23.0,83,0.00,,,0.00,Wunderground v.1.15,2013-12-31 08:05:00,
2013-12-31 03:10:00,2.2,-1.8,30.07,North,354,0.0,23.0,83,0.00,,,0.00,Wunderground v.1.15,2013-12-31 08:10:00,
2013-12-31 03:20:00,1.8,-1.9,30.07,ENE,73,1.0,1.0,84,0.00,,,0.00,Wunderground v.1.15,2013-12-31 08:20:00,
2013-12-31 03:25:00,1.6,-2.1,30.07,ENE,72,0.0,23.0,84,0.00,,,0.00,Wunderground v.1.15,2013-12-31 08:25:00,
2013-12-31 03:30:00,1.4,-2.3,30.07,ENE,68,0.0,23.0,84,0.00,,,0.00,Wunderground v.1.15,2013-12-31 08:30:00,
2013-12-31 03:35:00,1.3,-2.4,30.07,ENE,69,0.0,23.0,84,0.00,,,0.00,Wunderground v.1.15,2013-12-31 08:35:00,
2013-12-31 03:40:00,1.2,-2.5,30.07,ENE,68,0.0,23.0,84,0.00,,,0.00,Wunderground v.1.15,2013-12-31 08:40:00,
2013-12-31 03:45:00,1.1,-2.6,30.07,ENE,69,0.0,23.0,84,0.00,,,0.00,Wunderground v.1.15,2013-12-31 08:45:00,
2013-12-31 03:55:00,0.9,-2.6,30.07,ENE,69,0.0,23.0,85,0.00,,,0.00,Wunderground v.1.15,2013-12-31 08:55:00,
2013-12-31 04:00:00,0.9,-2.6,30.07,ENE,68,0.0,23.0,85,0.00,,,0.00,Wunderground v.1.15,2013-12-31 09:00:00,
2013-12-31 04:05:00,0.9,-2.6,30.06,ENE,68,0.0,23.0,85,0.00,,,0.00,Wunderground v.1.15,2013-12-31 09:05:00,
2013-12-31 04:15:00,0.7,-3.0,30.06,North,4,0.0,23.0,84,0.00,,,0.00,Wunderground v.1.15,2013-12-31 09:15:00,
2013-12-31 04:20:00,0.6,-3.1,30.06,North,4,0.0,23.0,84,0.00,,,0.00,Wunderground v.1.15,2013-12-31 09:20:00,
2013-12-31 04:30:00,0.3,-3.4,30.06,North,4,0.0,23.0,84,0.00,,,0.00,Wunderground v.1.15,2013-12-31 09:30:00,
2013-12-31 04:35:00,0.3,-3.4,30.06,North,4,0.0,23.0,84,0.00,,,0.00,Wunderground v.1.15,2013-12-31 09:35:00,
2013-12-31 04:40:00,0.1,-3.6,30.06,North,4,0.0,23.0,84,0.00,,,0.00,Wunderground v.1.15,2013-12-31 09:40:00,
2013-12-31 04:45:00,0.0,-3.7,30.06,North,4,0.0,23.0,84,0.00,,,0.00,Wunderground v.1.15,2013-12-31 09:45:00,
2013-12-31 04:50:00,-0.1,-3.5,30.06,North,4,0.0,23.0,85,0.00,,,0.00,Wunderground v.1.15,2013-12-31 09:50:00,
2013-12-31 05:00:00,-0.2,-3.6,30.06,North,4,0.0,23.0,85,0.00,,,0.00,Wunderground v.1.15,2013-12-31 10:00:00,
2013-12-31 05:05:00,-0.2,-3.6,30.06,North,4,0.0,23.0,85,0.00,,,0.00,Wunderground v.1.15,2013-12-31 10:05:00,
2013-12-31 05:10:00,-0.2,-3.9,30.05,North,4,0.0,23.0,84,0.00,,,0.00,Wunderground v.1.15,2013-12-31 10:10:00,
2013-12-31 05:15:00,-0.3,-4.0,30.05,North,4,0.0,23.0,84,0.00,,,0.00,Wunderground v.1.15,2013-12-31 10:15:00,
2013-12-31 05:20:00,-0.3,-4.0,30.05,North,4,0.0,23.0,84,0.00,,,0.00,Wunderground v.1.15,2013-12-31 10:20:00,
2013-12-31 05:25:00,-0.4,-4.3,30.05,North,4,0.0,23.0,83,0.00,,,0.00,Wunderground v.1.15,2013-12-31 10:25:00,
2013-12-31 05:35:00,-0.5,-4.2,30.05,ESE,113,0.0,23.0,84,0.00,,,0.00,Wunderground v.1.15,2013-12-31 10:35:00,
2013-12-31 05:40:00,-0.5,-4.4,30.05,ESE,102,0.0,23.0,83,0.00,,,0.00,Wunderground v.1.15,2013-12-31 10:40:00,
2013-12-31 05:45:00,-0.4,-4.3,30.05,ESE,102,0.0,23.0,83,0.00,,,0.00,Wunderground v.1.15,2013-12-31 10:45:00,
2013-12-31 05:50:00,-0.5,-4.4,30.05,ESE,102,0.0,23.0,83,0.00,,,0.00,Wunderground v.1.15,2013-12-31 10:50:00,
2013-12-31 05:55:00,-0.5,-4.7,30.05,ESE,102,1.0,23.0,82,0.00,,,0.00,Wunderground v.1.15,2013-12-31 10:55:00,
2013-12-31 06:05:00,-0.5,-4.9,30.05,ESE,102,0.0,23.0,81,0.00,,,0.00,Wunderground v.1.15,2013-12-31 11:05:00,
2013-12-31 06:10:00,-0.5,-4.9,30.05,ESE,102,0.0,23.0,81,0.00,,,0.00,Wunderground v.1.15,2013-12-31 11:10:00,
2013-12-31 06:15:00,-0.5,-4.9,30.05,ESE,102,0.0,23.0,81,0.00,,,0.00,Wunderground v.1.15,2013-12-31 11:15:00,
2013-12-31 06:20:00,-0.7,-5.1,30.05,ESE,102,0.0,23.0,81,0.00,,,0.00,Wunderground v.1.15,2013-12-31 11:20:00,
2013-12-31 06:25:00,-0.8,-5.0,30.05,ESE,102,0.0,23.0,82,0.00,,,0.00,Wunderground v.1.15,2013-12-31 11:25:00,
2013-12-31 06:30:00,-0.9,-5.1,30.05,ESE,102,0.0,23.0,82,0.00,,,0.00,Wunderground v.1.15,2013-12-31 11:30:00,
2013-12-31 06:40:00,-1.3,-5.5,30.05,ESE,102,0.0,23.0,82,0.00,,,0.00,Wunderground v.1.15,2013-12-31 11:40:00,
2013-12-31 06:45:00,-1.5,-5.7,30.05,ESE,102,0.0,23.0,82,0.00,,,0.00,Wunderground v.1.15,2013-12-31 11:45:00,
2013-12-31 06:50:00,-1.6,-5.8,30.05,ESE,102,0.0,23.0,82,0.00,,,0.00,Wunderground v.1.15,2013-12-31 11:50:00,
2013-12-31 06:55:00,-1.8,-5.7,30.05,ESE,102,0.0,23.0,83,0.00,,,0.00,Wunderground v.1.15,2013-12-31 11:55:00,
2013-12-31 07:00:00,-1.8,-5.7,30.05,ESE,102,0.0,23.0,83,0.00,,,0.00,Wunderground v.1.15,2013-12-31 12:00:00,
2013-12-31 07:10:00,-1.9,-5.6,30.05,ESE,102,0.0,23.0,84,0.00,,,0.00,Wunderground v.1.15,2013-12-31 12:10:00,
2013-12-31 07:15:00,-1.9,-5.6,30.05,ESE,102,0.0,23.0,84,0.00,,,0.00,Wunderground v.1.15,2013-12-31 12:15:00,
2013-12-31 07:25:00,-1.9,-5.6,30.06,ESE,102,0.0,23.0,84,0.00,,,0.00,Wunderground v.1.15,2013-12-31 12:25:00,
2013-12-31 07:30:00,-1.9,-5.6,30.06,ESE,102,0.0,23.0,84,0.00,,,0.00,Wunderground v.1.15,2013-12-31 12:30:00,
2013-12-31 07:35:00,-1.8,-5.2,30.06,ESE,102,0.0,23.0,85,0.00,,,0.00,Wunderground v.1.15,2013-12-31 12:35:00,
2013-12-31 07:45:00,-1.7,-5.1,30.06,ESE,102,0.0,23.0,85,0.00,,,0.00,Wunderground v.1.15,2013-12-31 12:45:00,
2013-12-31 07:50:00,-1.7,-5.1,30.06,ESE,102,0.0,23.0,85,0.00,,,0.00,Wunderground v.1.15,2013-12-31 12:50:00,
2013-12-31 07:55:00,-1.7,-5.1,30.06,ESE,102,0.0,23.0,85,0.00,,,0.00,Wunderground v.1.15,2013-12-31 12:55:00,
2013-12-31 08:00:00,-1.6,-5.0,30.05,ESE,102,0.0,23.0,85,0.00,,,0.00,Wunderground v.1.15,2013-12-31 13:00:00,
2013-12-31 08:05:00,-1.3,-4.7,30.05,ESE,102,0.0,23.0,85,0.00,,,0.00,Wunderground v.1.15,2013-12-31 13:05:00,
2013-12-31 08:10:00,-1.1,-4.8,30.05,ESE,102,0.0,23.0,84,0.00,,,0.00,Wunderground v.1.15,2013-12-31 13:10:00,
2013-12-31 08:20:00,-0.6,-4.5,30.05,ESE,102,0.0,23.0,83,0.00,,,0.00,Wunderground v.1.15,2013-12-31 13:20:00,
2013-12-31 08:25:00,-0.4,-4.8,30.05,ESE,102,0.0,23.0,81,0.00,,,0.00,Wunderground v.1.15,2013-12-31 13:25:00,
2013-12-31 08:30:00,-0.1,-4.5,30.06,ESE,102,0.0,23.0,81,0.00,,,0.00,Wunderground v.1.15,2013-12-31 13:30:00,
2013-12-31 08:35:00,0.1,-4.3,30.06,SSE,166,0.0,23.0,81,0.00,,,0.00,Wunderground v.1.15,2013-12-31 13:35:00,
2013-12-31 08:40:00,0.2,-4.5,30.06,SSE,166,0.0,23.0,80,0.00,,,0.00,Wunderground v.1.15,2013-12-31 13:40:00,
2013-12-31 08:50:00,0.4,-4.6,30.06,South,169,0.0,23.0,79,0.00,,,0.00,Wunderground v.1.15,2013-12-31 13:50:00,
2013-12-31 08:55:00,0.6,-4.1,30.06,South,169,0.0,23.0,80,0.00,,,0.00,Wunderground v.1.15,2013-12-31 13:55:00,
2013-12-31 09:00:00,0.9,-3.6,30.06,South,169,0.0,23.0,81,0.00,,,0.00,Wunderground v.1.15,2013-12-31 14:00:00,
2013-12-31 09:05:00,1.0,-3.2,30.06,SSE,168,0.0,23.0,82,0.00,,,0.00,Wunderground v.1.15,2013-12-31 14:05:00,
2013-12-31 09:10:00,1.4,-2.8,30.06,SSE,168,0.0,23.0,82,0.00,,,0.00,Wunderground v.1.15,2013-12-31 14:10:00,
2013-12-31 09:15:00,1.7,-2.8,30.06,South,169,0.0,23.0,81,0.00,,,0.00,Wunderground v.1.15,2013-12-31 14:15:00,
2013-12-31 09:25:00,2.5,-2.5,30.07,South,169,0.0,23.0,79,0.00,,,0.00,Wunderground v.1.15,2013-12-31 14:25:00,
2013-12-31 09:30:00,2.9,-2.1,30.07,South,169,0.0,23.0,79,0.00,,,0.00,Wunderground v.1.15,2013-12-31 14:30:00,
2013-12-31 09:35:00,3.1,-2.2,30.07,South,169,0.0,23.0,78,0.00,,,0.00,Wunderground v.1.15,2013-12-31 14:35:00,
2013-12-31 09:40:00,3.4,-1.9,30.06,South,169,1.0,1.0,78,0.00,,,0.00,Wunderground v.1.15,2013-12-31 14:40:00,
2013-12-31 09:45:00,3.6,-2.0,30.06,South,169,0.0,23.0,77,0.00,,,0.00,Wunderground v.1.15,2013-12-31 14:45:00,
2013-12-31 09:55:00,4.5,-1.1,30.06,South,175,0.0,23.0,77,0.00,,,0.00,Wunderground v.1.15,2013-12-31 14:55:00,
2013-12-31 10:00:00,4.8,-1.1,30.06,South,175,0.0,23.0,76,0.00,,,0.00,Wunderground v.1.15,2013-12-31 15:00:00,
2013-12-31 10:05:00,5.0,-0.9,30.05,South,176,0.0,23.0,76,0.00,,,0.00,Wunderground v.1.15,2013-12-31 15:05:00,
2013-12-31 10:15:00,5.1,-0.8,30.04,South,176,0.0,23.0,76,0.00,,,0.00,Wunderground v.1.15,2013-12-31 15:15:00,
2013-12-31 10:20:00,5.3,-0.6,30.05,South,176,0.0,23.0,76,0.00,,,0.00,Wunderground v.1.15,2013-12-31 15:20:00,
2013-12-31 10:30:00,5.4,-0.8,30.04,South,176,0.0,23.0,75,0.00,,,0.00,Wunderground v.1.15,2013-12-31 15:30:00,
2013-12-31 10:35:00,5.6,-0.6,30.04,South,176,0.0,23.0,75,0.00,,,0.00,Wunderground v.1.15,2013-12-31 15:35:00,
2013-12-31 10:40:00,5.9,-0.3,30.03,South,176,0.0,23.0,75,0.00,,,0.00,Wunderground v.1.15,2013-12-31 15:40:00,
2013-12-31 10:45:00,6.2,0.0,30.03,South,176,0.0,23.0,75,0.00,,,0.00,Wunderground v.1.15,2013-12-31 15:45:00,
2013-12-31 10:50:00,6.5,0.0,30.02,South,176,0.0,23.0,74,0.00,,,0.00,Wunderground v.1.15,2013-12-31 15:50:00,
2013-12-31 10:55:00,6.6,-0.2,30.03,SW,227,1.0,23.0,73,0.00,,,0.00,Wunderground v.1.15,2013-12-31 15:55:00,
2013-12-31 11:05:00,7.2,0.7,30.02,SSW,193,0.0,23.0,74,0.00,,,0.00,Wunderground v.1.15,2013-12-31 16:05:00,
2013-12-31 11:10:00,7.4,0.6,30.01,SSW,193,0.0,23.0,73,0.00,,,0.00,Wunderground v.1.15,2013-12-31 16:10:00,
2013-12-31 11:15:00,7.5,0.7,30.01,SSW,193,0.0,23.0,73,0.00,,,0.00,Wunderground v.1.15,2013-12-31 16:15:00,
2013-12-31 11:20:00,7.6,0.5,30.01,SSW,194,0.0,23.0,72,0.00,,,0.00,Wunderground v.1.15,2013-12-31 16:20:00,
2013-12-31 11:25:00,7.9,0.7,30.01,SSW,193,1.0,23.0,72,0.00,,,0.00,Wunderground v.1.15,2013-12-31 16:25:00,
2013-12-31 11:35:00,8.9,1.7,30.00,SSW,213,1.0,23.0,72,0.00,,,0.00,Wunderground v.1.15,2013-12-31 16:35:00,
2013-12-31 11:40:00,9.0,1.5,30.00,SW,235,1.0,1.0,71,0.00,,,0.00,Wunderground v.1.15,2013-12-31 16:40:00,
2013-12-31 11:45:00,9.2,1.7,30.00,SW,218,1.0,23.0,71,0.00,,,0.00,Wunderground v.1.15,2013-12-31 16:45:00,
2013-12-31 11:50:00,9.5,1.7,30.00,SSE,149,1.0,1.0,70,0.00,,,0.00,Wunderground v.1.15,2013-12-31 16:50:00,
2013-12-31 11:55:00,9.3,1.5,29.99,SSE,159,1.0,3.0,70,0.00,,,0.00,Wunderground v.1.15,2013-12-31 16:55:00,
2013-12-31 12:00:00,9.0,1.5,30.00,SW,218,2.0,23.0,71,0.00,,,0.00,Wunderground v.1.15,2013-12-31 17:00:00,
2013-12-31 12:10:00,9.0,1.8,29.99,West,260,1.0,23.0,72,0.00,,,0.00,Wunderground v.1.15,2013-12-31 17:10:00,
2013-12-31 12:15:00,9.0,1.8,29.99,SW,226,1.0,23.0,72,0.00,,,0.00,Wunderground v.1.15,2013-12-31 17:15:00,
2013-12-31 12:20:00,9.2,2.3,29.98,SSE,162,1.0,1.0,73,0.00,,,0.00,Wunderground v.1.15,2013-12-31 17:20:00,
2013-12-31 12:25:00,9.5,2.3,29.98,SSE,162,0.0,23.0,72,0.00,,,0.00,Wunderground v.1.15,2013-12-31 17:25:00,
2013-12-31 12:30:00,9.9,2.7,29.98,SSE,162,0.0,23.0,72,0.00,,,0.00,Wunderground v.1.15,2013-12-31 17:30:00,
2013-12-31 12:40:00,10.0,2.5,29.98,SW,218,1.0,23.0,71,0.00,,,0.00,Wunderground v.1.15,2013-12-31 17:40:00,
2013-12-31 12:45:00,10.3,2.8,29.98,SSW,210,1.0,23.0,71,0.00,,,0.00,Wunderground v.1.15,2013-12-31 17:45:00,
2013-12-31 12:50:00,10.9,3.9,29.97,South,186,0.0,23.0,73,0.00,,,0.00,Wunderground v.1.15,2013-12-31 17:50:00,
2013-12-31 12:55:00,11.1,3.5,29.97,SSW,196,1.0,23.0,71,0.00,,,0.00,Wunderground v.1.15,2013-12-31 17:55:00,
2013-12-31 13:00:00,11.2,3.3,29.97,ESE,122,1.0,1.0,70,0.00,,,0.00,Wunderground v.1.15,2013-12-31 18:00:00,
2013-12-31 13:05:00,11.2,3.3,29.97,SSE,159,1.0,23.0,70,0.00,,,0.00,Wunderground v.1.15,2013-12-31 18:05:00,
2013-12-31 13:15:00,11.7,4.1,29.97,South,172,1.0,23.0,71,0.00,,,0.00,Wunderground v.1.15,2013-12-31 18:15:00,
2013-12-31 13:20:00,11.9,4.0,29.96,SW,232,1.0,1.0,70,0.00,,,0.00,Wunderground v.1.15,2013-12-31 18:20:00,
2013-12-31 13:25:00,12.1,4.5,29.96,South,172,1.0,23.0,71,0.00,,,0.00,Wunderground v.1.15,2013-12-31 18:25:00,
2013-12-31 13:30:00,12.2,4.6,29.96,SW,228,1.0,23.0,71,0.00,,,0.00,Wunderground v.1.15,2013-12-31 18:30:00,
2013-12-31 13:40:00,12.2,4.3,29.96,SW,217,2.0,2.0,70,0.00,,,0.00,Wunderground v.1.15,2013-12-31 18:40:00,
2013-12-31 13:45:00,12.3,4.7,29.97,SE,133,2.0,23.0,71,0.00,,,0.00,Wunderground v.1.15,2013-12-31 18:45:00,
2013-12-31 13:50:00,12.5,5.2,29.96,SSE,163,1.0,23.0,72,0.00,,,0.00,Wunderground v.1.15,2013-12-31 18:50:00,
2013-12-31 14:00:00,12.5,5.2,29.96,SE,146,1.0,1.0,72,0.00,,,0.00,Wunderground v.1.15,2013-12-31 19:00:00,
2013-12-31 14:05:00,12.7,5.4,29.96,SSW,202,1.0,23.0,72,0.00,,,0.00,Wunderground v.1.15,2013-12-31 19:05:00,
2013-12-31 14:10:00,12.8,5.5,29.96,South,181,1.0,23.0,72,0.00,,,0.00,Wunderground v.1.15,2013-12-31 19:10:00,
2013-12-31 14:20:00,12.8,5.8,29.96,SW,219,1.0,23.0,73,0.00,,,0.00,Wunderground v.1.15,2013-12-31 19:20:00,
2013-12-31 14:25:00,12.6,5.6,29.96,SW,222,1.0,23.0,73,0.00,,,0.00,Wunderground v.1.15,2013-12-31 19:25:00,
2013-12-31 14:30:00,12.3,5.3,29.97,SW,218,1.0,23.0,73,0.00,,,0.00,Wunderground v.1.15,2013-12-31 19:30:00,
2013-12-31 14:35:00,12.2,5.5,29.97,SW,235,1.0,23.0,74,0.00,,,0.00,Wunderground v.1.15,2013-12-31 19:35:00,
2013-12-31 14:40:00,12.1,5.7,29.97,SSW,213,1.0,1.0,75,0.00,,,0.00,Wunderground v.1.15,2013-12-31 19:40:00,
2013-12-31 14:45:00,12.1,5.7,29.97,SSW,213,1.0,23.0,75,0.00,,,0.00,Wunderground v.1.15,2013-12-31 19:45:00,
2013-12-31 14:55:00,12.1,6.3,29.97,SSW,213,0.0,23.0,77,0.00,,,0.00,Wunderground v.1.15,2013-12-31 19:55:00,
2013-12-31 15:00:00,12.2,6.4,29.97,SSW,213,0.0,23.0,77,0.00,,,0.00,Wunderground v.1.15,2013-12-31 20:00:00,
2013-12-31 15:05:00,12.2,6.4,29.97,SSW,213,0.0,23.0,77,0.00,,,0.00,Wunderground v.1.15,2013-12-31 20:05:00,
2013-12-31 15:10:00,12.3,6.5,29.98,SSW,213,0.0,23.0,77,0.00,,,0.00,Wunderground v.1.15,2013-12-31 20:10:00,
2013-12-31 15:15:00,12.2,6.4,29.97,SSW,213,0.0,23.0,77,0.00,,,0.00,Wunderground v.1.15,2013-12-31 20:15:00,
2013-12-31 15:25:00,12.2,6.9,29.97,SSW,213,0.0,23.0,79,0.00,,,0.00,Wunderground v.1.15,2013-12-31 20:25:00,
2013-12-31 15:30:00,12.1,7.1,29.98,SSW,213,0.0,23.0,80,0.00,,,0.00,Wunderground v.1.15,2013-12-31 20:30:00,
2013-12-31 15:35:00,12.1,7.1,29.98,SSW,213,0.0,23.0,80,0.00,,,0.00,Wunderground v.1.15,2013-12-31 20:35:00,
2013-12-31 15:40:00,12.0,7.3,29.98,SSW,213,0.0,23.0,81,0.00,,,0.00,Wunderground v.1.15,2013-12-31 20:40:00,
2013-12-31 15:45:00,12.0,7.3,29.99,SSW,213,0.0,23.0,81,0.00,,,0.00,Wunderground v.1.15,2013-12-31 20:45:00,
2013-12-31 15:50:00,11.8,7.4,29.98,SSW,213,0.0,23.0,82,0.00,,,0.00,Wunderground v.1.15,2013-12-31 20:50:00,
2013-12-31 16:00:00,11.6,7.2,29.99,SSW,213,0.0,23.0,82,0.00,,,0.00,Wunderground v.1.15,2013-12-31 21:00:00,
2013-12-31 16:05:00,11.4,7.2,29.99,SSW,213,0.0,23.0,83,0.00,,,0.00,Wunderground v.1.15,2013-12-31 21:05:00,
2013-12-31 16:10:00,11.3,7.1,29.99,SSW,213,0.0,23.0,83,0.00,,,0.00,Wunderground v.1.15,2013-12-31 21:10:00,
2013-12-31 16:15:00,11.2,7.0,29.99,SSW,213,0.0,23.0,83,0.00,,,0.00,Wunderground v.1.15,2013-12-31 21:15:00,
2013-12-31 16:20:00,11.0,6.8,29.98,SSW,213,0.0,23.0,83,0.00,,,0.00,Wunderground v.1.15,2013-12-31 21:20:00,
2013-12-31 16:30:00,10.6,6.7,29.99,South,174,0.0,23.0,84,0.00,,,0.00,Wunderground v.1.15,2013-12-31 21:30:00,
2013-12-31 16:35:00,10.4,6.5,29.99,South,174,0.0,23.0,84,0.00,,,0.00,Wunderground v.1.15,2013-12-31 21:35:00,
2013-12-31 16:40:00,10.2,6.6,29.98,South,174,0.0,23.0,85,0.00,,,0.00,Wunderground v.1.15,2013-12-31 21:40:00,
2013-12-31 16:45:00,10.0,6.4,29.99,South,174,0.0,23.0,85,0.00,,,0.00,Wunderground v.1.15,2013-12-31 21:45:00,
2013-12-31 16:55:00,9.5,5.9,29.99,South,174,0.0,23.0,85,0.00,,,0.00,Wunderground v.1.15,2013-12-31 21:55:00,
2013-12-31 17:00:00,9.3,6.0,29.99,South,174,0.0,23.0,86,0.00,,,0.00,Wunderground v.1.15,2013-12-31 22:00:00,
2013-12-31 17:10:00,9.0,5.7,29.99,South,174,0.0,23.0,86,0.00,,,0.00,Wunderground v.1.15,2013-12-31 22:10:00,
2013-12-31 17:15:00,9.0,5.9,30.00,South,174,0.0,23.0,87,0.00,,,0.00,Wunderground v.1.15,2013-12-31 22:15:00,
2013-12-31 17:20:00,9.0,5.9,30.00,South,174,0.0,23.0,87,0.00,,,0.00,Wunderground v.1.15,2013-12-31 22:20:00,
2013-12-31 17:25:00,9.2,6.4,30.00,South,174,0.0,23.0,88,0.00,,,0.00,Wunderground v.1.15,2013-12-31 22:25:00,
2013-12-31 17:30:00,9.2,6.4,30.00,South,174,0.0,23.0,88,0.00,,,0.00,Wunderground v.1.15,2013-12-31 22:30:00,
2013-12-31 17:40:00,9.8,7.2,30.00,SSE,165,1.0,1.0,89,0.00,,,0.00,Wunderground v.1.15,2013-12-31 22:40:00,
2013-12-31 17:45:00,9.9,7.3,30.00,SSE,165,1.0,23.0,89,0.00,,,0.00,Wunderground v.1.15,2013-12-31 22:45:00,
2013-12-31 17:50:00,10.1,7.5,30.00,SSE,165,1.0,1.0,89,0.00,,,0.00,Wunderground v.1.15,2013-12-31 22:50:00,
2013-12-31 17:55:00,10.1,7.5,30.00,SE,140,0.0,23.0,89,0.00,,,0.00,Wunderground v.1.15,2013-12-31 22:55:00,
2013-12-31 18:00:00,10.2,7.6,30.00,SE,140,1.0,1.0,89,0.00,,,0.00,Wunderground v.1.15,2013-12-31 23:00:00,
2013-12-31 18:10:00,10.3,7.5,30.00,SE,143,1.0,1.0,88,0.00,,,0.00,Wunderground v.1.15,2013-12-31 23:10:00,
2013-12-31 18:20:00,10.3,7.7,30.00,SE,143,0.0,23.0,89,0.00,,,0.00,Wunderground v.1.15,2013-12-31 23:20:00,
2013-12-31 18:25:00,10.2,7.4,30.01,SE,143,0.0,23.0,88,0.00,,,0.00,Wunderground v.1.15,2013-12-31 23:25:00,
2013-12-31 18:30:00,10.3,7.7,30.01,SE,144,0.0,23.0,89,0.00,,,0.00,Wunderground v.1.15,2013-12-31 23:30:00,
2013-12-31 18:35:00,10.5,8.1,30.01,SE,145,0.0,23.0,90,0.00,,,0.00,Wunderground v.1.15,2013-12-31 23:35:00,
2013-12-31 18:45:00,10.9,8.5,30.01,South,180,1.0,23.0,90,0.00,,,0.00,Wunderground v.1.15,2013-12-31 23:45:00,
2013-12-31 18:50:00,11.2,8.8,30.01,SSE,167,1.0,1.0,90,0.00,,,0.00,Wunderground v.1.15,2013-12-31 23:50:00,
2013-12-31 18:55:00,11.4,9.0,30.02,SSE,153,1.0,23.0,90,0.00,,,0.00,Wunderground v.1.15,2013-12-31 23:55:00,
2013-12-31 19:00:00,11.6,9.2,30.02,South,187,1.0,1.0,90,0.00,,,0.00,Wunderground v.1.15,2014-01-01 00:00:00,
2013-12-31 19:05:00,11.7,9.3,30.02,SSE,153,0.0,23.0,90,0.00,,,0.00,Wunderground v.1.15,2014-01-01 00:05:00,
2013-12-31 19:10:00,11.9,9.5,30.01,SW,230,1.0,1.0,90,0.00,,,0.00,Wunderground v.1.15,2014-01-01 00:10:00,
2013-12-31 19:20:00,11.9,9.3,30.01,WSW,248,2.0,2.0,89,0.00,,,0.00,Wunderground v.1.15,2014-01-01 00:20:00,
2013-12-31 19:25:00,12.2,9.6,30.01,WSW,249,3.0,4.0,89,0.00,,,0.00,Wunderground v.1.15,2014-01-01 00:25:00,
2013-12-31 19:30:00,12.7,10.1,30.01,WSW,249,4.0,23.0,89,0.00,,,0.00,Wunderground v.1.15,2014-01-01 00:30:00,
2013-12-31 19:35:00,13.8,10.6,30.02,West,262,5.0,23.0,87,0.00,,,0.00,Wunderground v.1.15,2014-01-01 00:35:00,
2013-12-31 19:45:00,14.9,10.7,30.02,WSW,247,6.0,23.0,83,0.00,,,0.00,Wunderground v.1.15,2014-01-01 00:45:00,
2013-12-31 19:50:00,15.0,10.5,30.01,SSW,194,6.0,23.0,82,0.00,,,0.00,Wunderground v.1.15,2014-01-01 00:50:00,
2013-12-31 19:55:00,15.1,10.6,30.02,SW,228,6.0,23.0,82,0.00,,,0.00,Wunderground v.1.15,2014-01-01 00:55:00,
2013-12-31 20:00:00,15.4,10.6,30.02,WSW,241,7.0,23.0,81,0.00,,,0.00,Wunderground v.1.15,2014-01-01 01:00:00,
2013-12-31 20:05:00,15.8,10.7,30.02,WSW,250,8.0,23.0,80,0.00,,,0.00,Wunderground v.1.15,2014-01-01 01:05:00,
2013-12-31 20:10:00,16.0,10.6,30.02,WSW,247,8.0,8.0,79,0.00,,,0.00,Wunderground v.1.15,2014-01-01 01:10:00,
2013-12-31 20:15:00,16.0,10.6,30.02,West,262,8.0,12.0,79,0.00,,,0.00,Wunderground v.1.15,2014-01-01 01:15:00,
2013-12-31 20:25:00,16.5,10.8,30.03,West,271,9.0,9.0,78,0.00,,,0.00,Wunderground v.1.15,2014-01-01 01:25:00,
2013-12-31 20:30:00,16.5,10.8,30.03,South,184,8.0,23.0,78,0.00,,,0.00,Wunderground v.1.15,2014-01-01 01:30:00,
2013-12-31 20:40:00,16.8,11.1,30.03,NNW,341,9.0,9.0,78,0.00,,,0.00,Wunderground v.1.15,2014-01-01 01:40:00,
2013-12-31 20:45:00,17.0,11.6,30.03,West,262,10.0,10.0,79,0.00,,,0.00,Wunderground v.1.15,2014-01-01 01:45:00,
2013-12-31 20:50:00,16.9,11.8,30.03,West,271,10.0,23.0,80,0.00,,,0.00,Wunderground v.1.15,2014-01-01 01:50:00,
2013-12-31 21:00:00,16.8,12.0,30.04,West,279,8.0,23.0,81,0.00,,,0.00,Wunderground v.1.15,2014-01-01 02:00:00,
2013-12-31 21:05:00,16.8,11.7,30.04,SW,227,7.0,23.0,80,0.00,,,0.00,Wunderground v.1.15,2014-01-01 02:05:00,
2013-12-31 21:10:00,16.8,11.7,30.04,WSW,256,7.0,23.0,80,0.00,,,0.00,Wunderground v.1.15,2014-01-01 02:10:00,
2013-12-31 21:15:00,16.8,11.7,30.05,West,263,7.0,23.0,80,0.00,,,0.00,Wunderground v.1.15,2014-01-01 02:15:00,
2013-12-31 21:20:00,16.7,12.2,30.05,West,266,6.0,6.0,82,0.00,,,0.00,Wunderground v.1.15,2014-01-01 02:20:00,
2013-12-31 21:25:00,16.5,12.2,30.05,WSW,252,6.0,8.0,83,0.00,,,0.00,Wunderground v.1.15,2014-01-01 02:25:00,
2013-12-31 21:35:00,16.1,12.9,30.06,West,262,6.0,23.0,87,0.00,,,0.00,Wunderground v.1.15,2014-01-01 02:35:00,
2013-12-31 21:40:00,15.9,13.0,30.06,SSW,207,5.0,23.0,88,0.00,,,0.00,Wunderground v.1.15,2014-01-01 02:40:00,
2013-12-31 21:45:00,15.8,13.1,30.06,WSW,249,5.0,23.0,89,0.00,,,0.00,Wunderground v.1.15,2014-01-01 02:45:00,
2013-12-31 21:50:00,15.8,12.9,30.06,WSW,257,6.0,6.0,88,0.00,,,0.00,Wunderground v.1.15,2014-01-01 02:50:00,
2013-12-31 21:55:00,15.7,13.0,30.06,West,280,6.0,23.0,89,0.00,,,0.00,Wunderground v.1.15,2014-01-01 02:55:00,
2013-12-31 22:05:00,15.6,12.9,30.07,WSW,254,5.0,7.0,89,0.00,,,0.00,Wunderground v.1.15,2014-01-01 03:05:00,
2013-12-31 22:10:00,15.5,12.8,30.08,West,276,5.0,5.0,89,0.00,,,0.00,Wunderground v.1.15,2014-01-01 03:10:00,
2013-12-31 22:15:00,15.5,12.6,30.08,WSW,246,6.0,11.0,88,0.00,,,0.00,Wunderground v.1.15,2014-01-01 03:15:00,
2013-12-31 22:20:00,15.6,11.9,30.08,West,270,8.0,8.0,85,0.00,,,0.00,Wunderground v.1.15,2014-01-01 03:20:00,
2013-12-31 22:25:00,15.7,11.5,30.07,WSW,249,9.0,9.0,83,0.00,,,0.00,Wunderground v.1.15,2014-01-01 03:25:00,
2013-12-31 22:30:00,15.7,10.9,30.07,WNW,302,9.0,9.0,81,0.00,,,0.00,Wunderground v.1.15,2014-01-01 03:30:00,
2013-12-31 22:40:00,15.7,10.6,30.08,WSW,247,7.0,23.0,80,0.00,,,0.00,Wunderground v.1.15,2014-01-01 03:40:00,
2013-12-31 22:45:00,15.5,10.7,30.08,West,260,7.0,23.0,81,0.00,,,0.00,Wunderground v.1.15,2014-01-01 03:45:00,
2013-12-31 22:50:00,15.4,10.3,30.08,WSW,244,6.0,23.0,80,0.00,,,0.00,Wunderground v.1.15,2014-01-01 03:50:00,
2013-12-31 22:55:00,15.4,10.3,30.08,West,263,6.0,23.0,80,0.00,,,0.00,Wunderground v.1.15,2014-01-01 03:55:00,
2013-12-31 23:00:00,15.3,10.2,30.08,West,275,7.0,7.0,80,0.00,,,0.00,Wunderground v.1.15,2014-01-01 04:00:00,
2013-12-31 23:10:00,15.2,10.1,30.08,West,264,7.0,23.0,80,0.00,,,0.00,Wunderground v.1.15,2014-01-01 04:10:00,
2013-12-31 23:15:00,15.0,9.9,30.09,West,272,7.0,23.0,80,0.00,,,0.00,Wunderground v.1.15,2014-01-01 04:15:00,
2013-12-31 23:20:00,14.9,10.4,30.09,West,269,6.0,23.0,82,0.00,,,0.00,Wunderground v.1.15,2014-01-01 04:20:00,
2013-12-31 23:30:00,14.6,10.6,30.09,WNW,288,4.0,23.0,84,0.00,,,0.00,Wunderground v.1.15,2014-01-01 04:30:00,
2013-12-31 23:35:00,14.4,10.7,30.09,WSW,251,4.0,23.0,85,0.00,,,0.00,Wunderground v.1.15,2014-01-01 04:35:00,
2013-12-31 23:45:00,14.0,10.6,30.09,WSW,244,3.0,23.0,86,0.00,,,0.00,Wunderground v.1.15,2014-01-01 04:45:00,
2013-12-31 23:50:00,13.8,10.4,30.09,WSW,256,3.0,23.0,86,0.00,,,0.00,Wunderground v.1.15,2014-01-01 04:50:00,
2013-12-31 23:55:00,13.7,10.3,30.09,West,264,3.0,23.0,86,0.00,,,0.00,Wunderground v.1.15,2014-01-01 04:55:00,